Skip Navigation Links
NOAA logo - Click to go to the NOAA homepage
NOAA's National Weather Service
Alaska Aviation Weather Unit
  NWS logo - Click to go to the NWS homepage
Left Navbar Graphic     08 AKDT = 16 GMT

   
NOAA is celebrating 200 years of science, service, and stewardship. Visit the NOAA 200th celebration Web site to learn more.
USA.gov is the U.S. Government's official Web portal to all Federal, state and local government Web resources and services.
Facebook
NWS on Facebook

Important Change Regarding the AAWU Web Presence

 

Over the last several months, the AAWU has been working to navigate its webpages to a nationally supported server. Security, as well as other needs, have necessitated the change.  In the process, we have made an effort to enhance the functionality of our website, as well as some of our products. As of June 20, 2017, aawu.arh.noaa.gov will be discontinued. The new AAWU web address is weather.gov/aawu. It is now live and will run in-parallel with the old site until it is discontinued. Please send any feedback or questions regarding the new webpages to nws.ar.aawu.webauthors@noaa.gov.  Thank you for your patience during this time of transition.
AAWU Home :: Display TAF Add Bookmark
TAF PAGY 291120Z 2912/3012 VRB03KT P6SM BKN180
     FM291800 21010KT P6SM BKN050 OVC180
     FM300300 20005KT P6SM SCT030 OVC050
      AMD LTD TO CLD VIS AND WIND=

METAR PAGY 291053Z AUTO 05003KT 10SM CLR 11/04 A2995 RMK AO2 SLP142 T01110044 TSNO= METAR PAGY 291153Z AUTO 04003KT 10SM FEW090 11/04 A2996 RMK AO2 SLP146 T01060044 10161 20106 53006 TSNO= METAR PAGY 291253Z AUTO 00000KT 10SM CLR 10/04 A2997 RMK AO2 SLP148 T01000039 TSNO= METAR PAGY 291353Z AUTO 00000KT 10SM CLR 09/05 A2998 RMK AO2 SLP150 T00940050 TSNO= METAR PAGY 291453Z AUTO 06004KT 10SM CLR 11/04 A2998 RMK AO2 SLP152 T01110044 51006 TSNO= METAR PAGY 291553Z AUTO 06003KT 10SM CLR 13/04 A2998 RMK AO2 SLP151 T01330044 TSNO=
 Alaska TAF Map

NOAA's National Weather Service
Alaska Aviation Weather Unit
6930 Sand Lake Road
Anchorage, AK 99502-1845
Disclaimer
Credits
Glossary
Privacy Policy
About Us
Career Opportunities
Contact AAWU Internet Services Site last modified: April, 17th 2012